[[{"header":{"parameterUnit":"m.s-1","parameterCategory":1,"la1":30.2991,"la2":30.254,"lo1":-89.0895,"lo2":-89.0444,"dy":0.0017,"dx":0.0017,"nx":28,"ny":28,"refTime":"2024-03-14T03:00:00:Z","depth":0,"parameterNumber":2,"parameterNumberName":"U-component_of_WINDS"},"data":[0,0,0,0,0,0,0,0,0,0,0,0,0,0,0,0,0,0,0,0,0,0,0,0,0,0,0,0,0,0,0,0,0,0,0,0,0,0,0,0,0,0,0,0,0,0,0,0,0,0,0,0,0,0,0,0,0,0,-2.8888,-2.8888,0,-2.8922,-2.8922,-2.8923,-2.8877,-2.8875,-2.8874,-2.8872,-2.8906,-2.8909,-2.8911,0,0,0,0,0,0,0,0,0,0,0,0,0,-2.8783,-2.8785,-2.8888,-2.8888,-2.8889,-2.8922,-2.8922,-2.8923,-2.8877,-2.8875,-2.8873,-2.8871,-2.8905,-2.8908,-2.8911,0,0,0,0,0,0,0,0,0,0,0,0,0,-2.8824,-2.8786,-2.8888,-2.887,-2.8869,-2.8922,-2.8922,-2.8923,-2.8878,-2.8875,-2.8873,-2.8871,-2.8904,-2.8908,-2.8912,-2.8983,0,0,-2.8923,-2.8924,0,0,0,0,0,0,0,0,-2.8822,-2.8828,-2.8872,-2.8871,-2.887,-2.8893,-2.8898,-2.8943,-2.8878,-2.8874,-2.8872,-2.8869,-2.8904,-2.8907,-2.8919,-2.8985,-2.8986,-2.8923,-2.8925,-2.8927,-2.8928,0,0,0,0,0,0,0,-2.8819,-2.8826,-2.8901,-2.8873,-2.8872,-2.886,-2.8863,-2.8906,-2.8902,-2.8874,-2.8871,-2.8876,-2.8903,-2.8916,-2.8919,-2.8987,-2.8923,-2.8926,-2.8928,-2.893,-2.9114,-2.9116,0,0,0,0,0,0,-2.8818,-2.8824,-2.89,-2.8902,-2.8839,-2.8864,-2.8868,-2.8888,-2.8902,-2.8901,-2.8878,-2.8874,-2.8911,-2.8915,-2.892,-2.9005,-2.8927,-2.893,-2.8932,-2.9111,-2.9114,-2.9117,0,0,0,0,0,0,-2.8816,-2.8826,-2.8899,-2.8862,-2.8871,-2.8869,-2.8892,-2.889,-2.8903,-2.8904,-2.8903,-2.8892,-2.8909,-2.8915,-2.8968,-2.9005,-2.8932,-2.8935,-2.9108,-2.9112,-2.9116,-2.9175,0,0,0,0,0,0,-2.8813,-2.8825,-2.8852,-2.8863,-2.8873,-2.8946,-2.8894,-2.8892,-2.8909,-2.8904,-2.8917,-2.8917,-2.8907,-2.8963,-2.8972,-2.9009,-2.8938,-2.9104,-2.911,-2.9114,-2.9169,-2.918,-2.919,0,0,0,0,0,-2.881,-2.8867,-2.8854,-2.8863,-2.8907,-2.8948,-2.8954,-2.8941,-2.8912,-2.894,-2.8941,-2.8917,-2.9001,-2.8969,-2.8978,-2.9017,-2.9102,-2.9108,-2.9114,-2.9165,-2.9178,-2.9189,0,0,0,0,0,0,-2.886,-2.8868,-2.8853,-2.8916,-2.8932,-2.894,-2.8974,-2.8956,-2.898,-2.8974,-2.8958,-2.8961,-2.9018,-2.9023,-2.8987,-2.9088,-2.9046,-2.9055,-2.9082,-2.9094,-2.9104,-2.9101,-2.8941,0,0,0,0,0,-2.8878,-2.8911,-2.8917,-2.8971,-2.898,-2.8976,-2.8994,-2.8983,-2.8999,-2.9005,-2.901,-2.9026,-2.9056,-2.9076,-2.9103,-2.9171,-2.9173,-2.9202,-2.9213,-2.9221,-2.9228,-2.9264,-2.9277,-2.9137,-2.9137,-2.9137,0,0,-2.8916,-2.8925,-2.8946,-2.8982,-2.8993,-2.9027,-2.8982,-2.902,-2.9045,-2.9011,-2.906,-2.9065,-2.9082,-2.9143,-2.9169,-2.9149,-2.9267,-2.9229,-2.9235,-2.9237,-2.9271,-2.9284,-2.9296,-2.9141,-2.914,-2.914,0,0,-2.9002,-2.9013,-2.9059,-2.9072,-2.9089,-2.9086,-2.9098,-2.911,-2.9112,-2.9162,-2.9137,-2.9167,-2.9219,-2.9231,-2.9245,-2.9339,-2.9317,-2.9348,-2.94,-2.9435,-2.9446,-2.9456,-2.9489,-2.9501,-2.9355,-2.9355,-2.9356,0,-2.9047,-2.9098,-2.9085,-2.9126,-2.9142,-2.9113,-2.916,-2.9173,-2.9199,-2.921,-2.9187,-2.9252,-2.9262,-2.9325,-2.9348,-2.936,-2.9372,-2.9345,-2.9446,-2.9456,-2.9464,-2.9495,-2.9508,-2.9359,-2.9359,-2.9358,-2.9358,0,-2.9152,-2.9188,-2.9223,-2.9249,-2.927,-2.9313,-2.9307,-2.933,-2.9319,-2.9318,-2.937,-2.9381,-2.941,-2.9425,-2.9413,-2.9486,-2.9473,-2.9449,-2.9406,-2.9481,-2.951,-2.9522,-2.9364,-2.9363,-2.9362,-2.9361,0,0,-2.9268,-2.9288,-2.9301,-2.9313,-2.9331,-2.9358,-2.9401,-2.943,-2.945,-2.9469,-2.9504,-2.955,-2.9527,-2.9543,-2.9533,-2.9564,-2.9637,-2.9536,-2.9536,-2.9553,-2.9718,-2.9735,-2.9749,-2.9624,-2.9626,-2.9628,-2.9716,0,-2.9353,-2.9427,-2.9418,-2.9488,-2.9521,-2.9496,-2.9533,-2.9548,-2.955,-2.9578,-2.958,-2.9612,-2.958,-2.959,-2.962,-2.9622,-2.967,-2.9616,-2.9656,-2.9657,-2.965,-2.9764,-2.9782,-2.9864,-2.9727,-2.9729,-2.9731,0,-2.9462,-2.9486,-2.956,-2.9574,-2.9587,-2.9621,-2.9647,-2.9675,-2.9692,-2.9691,-2.9709,-2.9695,-2.9738,-2.9697,-2.9755,-2.9719,-2.9735,-2.9739,-2.9742,-2.9744,-2.9697,-2.9767,-2.989,-2.9902,-2.9748,-2.9747,-2.9746,0,-2.9538,-2.9589,-2.964,-2.9651,-2.9668,-2.9693,-2.9701,-2.9716,-2.9735,-2.9758,-2.977,-2.9798,-2.9813,-2.9836,-2.9829,-2.98,-2.9889,-2.9848,-2.9889,-2.9889,-2.9907,-2.9906,-3.0033,-2.9921,-2.992,-2.992,-2.992,0,-2.9634,-2.9679,-2.9674,-2.9705,-2.9756,-2.9746,-2.9797,-2.9802,-2.9816,-2.9848,-2.9828,-2.9858,-2.9848,-2.9878,-2.9874,-2.9923,-2.993,-2.993,-2.9928,-2.9931,-2.9931,-2.994,-2.9933,-2.9923,-2.9923,-2.9922,-2.9922,0,-2.9726,-2.9724,-2.9778,-2.9791,-2.9795,-2.9832,-2.9843,-2.9873,-2.9874,-2.9914,-2.9923,-2.9924,-2.9958,-2.9955,-2.9993,-2.999,-3.0051,-3.0043,-3.0045,-3.0042,-3.0084,-3.0079,-3.022,-3.0237,-3.0115,-3.0116,-3.0117,0,-2.9786,-2.982,-2.9838,-2.9858,-2.9868,-2.9901,-2.992,-2.9912,-2.9933,-2.9956,-2.9982,-3.0015,-3.004,-3.0096,-3.0101,-3.013,-3.0121,-3.0169,-3.0126,-3.0128,-3.0121,-3.0118,-3.0121,-3.0177,-3.0178,-3.0179,-3.018,0,-2.9892,-2.989,-2.9918,-2.9947,-2.997,-2.9992,-3.0012,-3.003,-3.0024,-3.0048,-3.0083,-3.0103,-3.0143,-3.0176,-3.0204,-3.0213,-3.0195,-3.0194,-3.0205,-3.0207,-3.0207,-3.0206,-3.0066,-3.019,-3.0189,-3.0188,-3.0188,-3.0187,-2.9969,-2.9999,-3.0016,-3.0048,-3.0063,-3.0082,-3.011,-3.0116,-3.0145,-3.0176,-3.0171,-3.021,-3.0227,-3.0263,-3.0275,-3.0306,-3.0289,-3.0305,-3.0309,-3.0312,-3.0317,-3.0204,-3.0311,-3.0311,-3.0311,-3.0311,-3.031,0,-3.0073,-3.0083,-3.0113,-3.0142,-3.0168,-3.0151,-3.0173,-3.0195,-3.023,-3.0248,-3.0274,-3.0315,-3.0347,-3.0355,-3.0385,-3.0408,-3.0401,-3.0416,-3.0414,-3.0416,-3.0331,-3.0318,-3.0422,-3.0422,-3.0422,-3.0422,-3.0422,-3.0422,-3.013,-3.0179,-3.018,-3.0236,-3.0246,-3.0285,-3.0299,-3.0317,-3.0331,-3.0377,-3.0404,-3.0409,-3.0423,-3.0455,-3.0484,-3.0485,-3.0497,-3.0515,-3.0513,-3.0433,-3.0422,-3.0411,-3.0399,-3.0518,-3.0518,-3.0596,-3.0596,-3.0597]},{"header":{"parameterUnit":"m.s-1","parameterCategory":1,"la1":30.2991,"la2":30.254,"lo1":-89.0895,"lo2":-89.0444,"dy":0.0017,"dx":0.0017,"nx":28,"ny":28,"refTime":"2024-03-14T03:00:00:Z","depth":0,"parameterNumber":3,"parameterNumberName":"V-component_of_WINDS"},"data":[0,0,0,0,0,0,0,0,0,0,0,0,0,0,0,0,0,0,0,0,0,0,0,0,0,0,0,0,0,0,0,0,0,0,0,0,0,0,0,0,0,0,0,0,0,0,0,0,0,0,0,0,0,0,0,0,0,0,1.983,1.983,0,1.9844,1.9844,1.9845,1.9813,1.9812,1.9811,1.981,1.9824,1.9825,1.9826,0,0,0,0,0,0,0,0,0,0,0,0,0,1.9777,1.9779,1.983,1.983,1.9831,1.9844,1.9844,1.9845,1.9813,1.9812,1.9811,1.981,1.9823,1.9825,1.9826,0,0,0,0,0,0,0,0,0,0,0,0,0,1.9797,1.9779,1.983,1.9817,1.9816,1.9844,1.9844,1.9845,1.9813,1.9812,1.981,1.9809,1.9823,1.9825,1.9827,1.9869,0,0,1.9833,1.9833,0,0,0,0,0,0,0,0,1.9796,1.9799,1.9818,1.9818,1.9816,1.9825,1.9831,1.9853,1.9814,1.9814,1.981,1.9808,1.9825,1.9827,1.9833,1.987,1.987,1.9833,1.9834,1.9835,1.9835,0,0,0,0,0,0,0,1.9794,1.9798,1.9836,1.9819,1.9818,1.981,1.9811,1.9835,1.9828,1.9814,1.9812,1.9814,1.9825,1.9831,1.9833,1.987,1.9833,1.9834,1.9836,1.9836,1.9945,1.9947,0,0,0,0,0,0,1.9795,1.9797,1.9835,1.9836,1.9802,1.9812,1.9814,1.9824,1.9828,1.9827,1.9815,1.9812,1.9829,1.9831,1.9833,1.9885,1.9835,1.9837,1.9838,1.9943,1.9945,1.9947,0,0,0,0,0,0,1.9794,1.9798,1.9835,1.9816,1.982,1.9815,1.9827,1.9825,1.9832,1.9829,1.9827,1.9823,1.9827,1.9831,1.9861,1.9885,1.9837,1.9839,1.9941,1.9944,1.9946,1.9988,0,0,0,0,0,0,1.9792,1.9798,1.9814,1.9817,1.9821,1.9862,1.9828,1.9826,1.9835,1.9832,1.9836,1.9835,1.9827,1.9858,1.9863,1.9887,1.9841,1.9939,1.9943,1.9946,1.9984,1.9992,1.9998,0,0,0,0,0,1.9791,1.9824,1.9815,1.982,1.9841,1.9863,1.9866,1.9856,1.9837,1.9853,1.9852,1.9835,1.9882,1.9862,1.9867,1.9892,1.9938,1.9942,1.9945,1.9981,1.999,1.9998,0,0,0,0,0,0,1.9824,1.9824,1.9814,1.9849,1.9857,1.9858,1.9878,1.9865,1.9877,1.9874,1.986,1.9861,1.9895,1.9896,1.9874,1.9934,1.9907,1.9912,1.9932,1.9941,1.9947,1.9947,1.9842,0,0,0,0,0,1.9835,1.9853,1.9853,1.9884,1.9889,1.9883,1.9892,1.9884,1.9891,1.9894,1.9894,1.9902,1.9918,1.9929,1.9944,1.9984,1.9986,2.0004,2.0011,2.0016,2.0021,2.0045,2.0054,1.996,1.996,1.996,0,0,1.9859,1.9861,1.9874,1.9891,1.9896,1.9916,1.9885,1.9907,1.9922,1.9897,1.9926,1.9927,1.9934,1.9971,1.9986,1.9973,2.0047,2.0021,2.0026,2.0028,2.005,2.0059,2.0067,1.9963,1.9962,1.9962,0,0,1.9913,1.9916,1.9944,1.9949,1.9957,1.9954,1.996,1.9964,1.9964,1.9994,1.9976,1.9993,2.0021,2.0028,2.0036,2.0095,2.0081,2.01,2.0135,2.0159,2.0166,2.0173,2.0196,2.0204,2.0105,2.0105,2.0105,0,1.9941,1.997,1.9959,1.9983,1.9992,1.9971,2.0,2.0006,2.0018,2.0026,2.001,2.0047,2.005,2.0089,2.0103,2.0109,2.0118,2.01,2.0166,2.0172,2.0178,2.02,2.0209,2.0107,2.0107,2.0107,2.0106,0,2.0006,2.0027,2.0048,2.0062,2.0074,2.01,2.0093,2.0106,2.0098,2.0096,2.0127,2.0131,2.0147,2.0156,2.0147,2.0194,2.0185,2.0168,2.014,2.019,2.021,2.0218,2.0111,2.011,2.0109,2.0108,0,0,2.008,2.0089,2.0098,2.0105,2.0113,2.0129,2.0155,2.0172,2.0184,2.0194,2.0216,2.0242,2.0227,2.0235,2.0227,2.0247,2.0297,2.0227,2.0227,2.0242,2.0351,2.0366,2.0375,2.0287,2.0288,2.029,2.0351,0,2.0135,2.018,2.0172,2.0217,2.0237,2.0218,2.0241,2.0249,2.0249,2.0266,2.0265,2.0285,2.0262,2.0267,2.0286,2.0287,2.0319,2.0282,2.0309,2.031,2.0309,2.0386,2.04,2.0458,2.0359,2.036,2.0361,0,2.0205,2.0219,2.0266,2.0273,2.0281,2.0302,2.0318,2.0335,2.0344,2.0343,2.0353,2.0342,2.0369,2.034,2.0378,2.0353,2.0364,2.0366,2.0368,2.0371,2.034,2.0393,2.0476,2.0486,2.0373,2.0373,2.0372,0,2.0257,2.0287,2.032,2.0326,2.0335,2.0351,2.0355,2.0363,2.0375,2.0389,2.0396,2.0413,2.0422,2.0436,2.043,2.0409,2.047,2.044,2.0471,2.0471,2.0485,2.0484,2.0573,2.0489,2.0489,2.0489,2.0489,0,2.032,2.035,2.0344,2.0364,2.0397,2.0388,2.0422,2.0424,2.0431,2.0452,2.0436,2.0456,2.0447,2.0466,2.0462,2.0495,2.0499,2.0499,2.0498,2.0502,2.0502,2.0509,2.0506,2.0491,2.0491,2.049,2.049,0,2.0384,2.0381,2.0416,2.0422,2.0424,2.0449,2.0455,2.0474,2.0473,2.05,2.0506,2.0504,2.0527,2.0522,2.0546,2.0543,2.0586,2.0578,2.0583,2.0582,2.0613,2.0611,2.0711,2.0725,2.063,2.0631,2.0632,0,2.0425,2.0448,2.0458,2.0471,2.0477,2.0498,2.0511,2.0503,2.0516,2.053,2.0548,2.057,2.0586,2.0623,2.0624,2.0644,2.0638,2.0672,2.064,2.0644,2.0641,2.064,2.0643,2.0678,2.0679,2.068,2.0681,0,2.0499,2.0497,2.0516,2.0535,2.055,2.0564,2.0577,2.0588,2.0582,2.0598,2.0621,2.0635,2.0661,2.0683,2.0701,2.0705,2.0693,2.0691,2.0699,2.0704,2.0706,2.0707,2.0602,2.0688,2.0688,2.0687,2.0687,2.0686,2.0554,2.0575,2.0586,2.0607,2.0616,2.0629,2.0649,2.0651,2.067,2.0691,2.0685,2.0713,2.0723,2.0747,2.0754,2.0776,2.0763,2.0774,2.0778,2.0781,2.0786,2.0702,2.0779,2.0778,2.0778,2.0778,2.0778,0,2.0629,2.0636,2.0656,2.0675,2.0693,2.068,2.0694,2.0709,2.0734,2.0745,2.0763,2.0791,2.0812,2.0816,2.0837,2.0854,2.0849,2.086,2.0859,2.0861,2.0795,2.0787,2.0864,2.0864,2.0864,2.0864,2.0864,2.0864,2.0671,2.0705,2.0705,2.0745,2.0751,2.0778,2.0788,2.08,2.0809,2.0842,2.086,2.0862,2.0871,2.0893,2.0913,2.0914,2.0923,2.0937,2.0935,2.0874,2.0865,2.0857,2.0849,2.0938,2.0938,2.1,2.1,2.1001]}]]